Location: Lake Sonoma
(38.7200°N, 123.0564°W)
Time: 19:54:27
(UTC-07:00)

ISS - All Passes

Search period start: 27 July 2016 00:00
Search period end: 06 August 2016 00:00
Orbit: 401 x 404 km, 51.6° (Epoch: 27 July)

Date Brightness Start Highest point End Pass type
(mag) Time Alt. Az. Time Alt. Az. Time Alt. Az.
27 Jul - 02:28:28 10° N 02:29:40 11° NNE 02:30:51 10° NE visible
27 Jul - 04:03:41 10° NW 04:06:48 40° NNE 04:09:53 10° ESE visible
27 Jul - 05:40:38 10° W 05:43:01 19° SW 05:45:24 10° S visible
27 Jul - 20:42:29 10° S 20:45:10 24° SE 20:47:51 10° ENE daylight
27 Jul - 22:18:29 10° W 22:21:28 33° NNW 22:24:29 10° NE visible
27 Jul - 23:57:53 10° NNW 23:58:42 11° NNW 23:59:30 10° N visible
28 Jul - 03:11:00 10° NNW 03:13:44 24° NNE 03:16:28 10° E visible
28 Jul - 04:47:11 10° WNW 04:50:14 38° SW 04:53:17 10° SSE visible
28 Jul - 19:51:08 10° SSE 19:52:26 12° SE 19:53:44 10° ESE daylight
28 Jul - 21:25:15 10° WSW 21:28:28 63° NW 21:31:43 10° NE visible
28 Jul - 23:03:40 10° NW 23:05:26 14° NNW 23:07:12 10° NNE visible
29 Jul - 02:18:24 10° NNW 02:20:35 17° NNE 02:22:46 10° ENE visible
29 Jul - 03:54:07 10° NW 03:57:22 84° SW 04:00:38 10° SE night (unlit)
29 Jul - 20:32:21 10° SW 20:35:33 62° SE 20:38:46 10° ENE daylight
29 Jul - 22:09:49 10° WNW 22:12:14 19° NNW 22:14:40 10° NNE visible
30 Jul - 01:25:55 10° N 01:27:21 12° NNE 01:28:48 10° NE visible
30 Jul - 03:01:14 10° NW 03:04:25 48° NE 03:07:35 10° ESE night (unlit)
30 Jul - 04:38:31 10° W 04:40:34 16° SW 04:42:37 10° S night (unlit)
30 Jul - 19:39:51 10° SSW 19:42:43 29° SE 19:45:35 10° ENE daylight
30 Jul - 21:16:12 10° W 21:19:06 29° NNW 21:22:01 10° NNE visible
30 Jul - 22:56:05 10° NNW 22:56:23 10° N 22:56:41 10° N visible
31 Jul - 02:08:31 10° NNW 02:11:22 27° NNE 02:14:14 10° E night (unlit)
31 Jul - 03:44:52 10° WNW 03:47:48 31° SW 03:50:43 10° SSE night (unlit)
31 Jul - 18:48:05 10° SSE 18:49:57 15° SE 18:51:51 10° E daylight
31 Jul - 20:22:54 10° WSW 20:26:04 52° NW 20:29:16 10° NE daylight
31 Jul - 22:01:34 10° NW 22:03:06 13° NNW 22:04:39 10° NNE visible
01 Aug - 01:15:53 10° NNW 01:18:14 18° NNE 01:20:35 10° ENE visible
01 Aug - 02:51:43 10° NW 02:54:56 68° SW 02:58:11 10° SE night (unlit)
01 Aug - 19:29:53 10° SW 19:33:07 77° SE 19:36:22 10° NE daylight
01 Aug - 21:07:37 10° WNW 21:09:53 17° NNW 21:12:09 10° NNE visible
02 Aug - 00:23:21 10° NNW 00:25:02 13° NNE 00:26:41 10° NE visible
02 Aug - 01:58:47 10° NW 02:02:01 58° NE 02:05:13 10° ESE night (unlit)
02 Aug - 03:36:30 10° W 03:38:05 13° SW 03:39:39 10° SSW night (unlit)
02 Aug - 18:37:15 10° SSW 18:40:15 35° SE 18:43:16 10° ENE daylight
02 Aug - 20:13:56 10° W 20:16:44 25° NNW 20:19:31 10° NNE daylight
02 Aug - 23:31:06 10° N 23:31:44 10° NNE 23:32:23 10° NNE visible
03 Aug - 01:06:00 10° NW 01:08:59 31° NNE 01:11:56 10° E visible
03 Aug - 02:42:34 10° WNW 02:45:20 26° SW 02:48:05 10° SSE night (unlit)
03 Aug - 17:45:12 10° S 17:47:27 18° SE 17:49:43 10° E daylight
03 Aug - 19:20:32 10° WSW 19:23:39 43° NW 19:26:48 10° NE daylight
03 Aug - 20:59:27 10° NW 21:00:45 12° NNW 21:02:03 10° N visible
04 Aug - 00:13:20 10° NNW 00:15:52 20° NNE 00:18:22 10° ENE visible
04 Aug - 01:49:18 10° WNW 01:52:30 54° SW 01:55:40 10° SE night (unlit)
04 Aug - 18:27:25 10° SW 18:30:40 87° NW 18:33:55 10° NE daylight
04 Aug - 20:05:25 10° WNW 20:07:30 16° NNW 20:09:35 10° NNE daylight
04 Aug - 23:20:46 10° NNW 23:22:40 14° NNE 23:24:32 10° NE visible
05 Aug - 00:56:19 10° NW 00:59:35 71° NE 01:02:48 10° ESE visible
05 Aug - 02:34:51 10° WSW 02:35:33 11° SW 02:36:17 10° SW night (unlit)
05 Aug - 17:34:39 10° SSW 17:37:46 43° SE 17:40:53 10° ENE daylight
05 Aug - 19:11:39 10° W 19:14:19 23° NNW 19:16:59 10° NNE daylight
05 Aug - 22:28:23 10° N 22:29:23 11° NNE 22:30:23 10° NNE visible
